COSMOS 941

Satellite information

Favourite Embed

Satellite Type and Status

PAYLOADIN ORBIT

Key statistics

Satellite COSMOS 941 at a glance.

Uptime

17651

Days in orbit

Revolutions

≈ 12.6

Per day

Orbit

LEO

Low Earth Orbit

Inclination

74.0

Latest

Satellite identification and parameters

Extended collection of information and parameters for COSMOS 941.

Object identification

Identified? True

Debris? False

Object name: COSMOS 941

International designator: 1977-079C

Object number (NORAD): 10287

Object ID (CCSDS): 10287

Country: COMMONWEALTH OF INDEPENDENT STATES (CIS)

Current information (Y/N): Y

RCS size: MEDIUM

Orbital parameters

Period: 114.6 minutes

Inclination: 74.0255 deg

SMA: 7815.36 km

Apoapsis: 1462.474 km

Periapsis: 1411.977 km

RAAN: 273.7782 deg

Eccentricy: 0.0032306

Argument of periapsis: 260.3984 deg

Mean anomaly: 166.4131 deg

Mean motion: 12.56548462 rev/day

Mean motion (dot): -0.0000001 rev/day2

B* drag term: 0.000036725539 1/REarth

Two-line elements (TLE)

Creation date: Dec. 20, 2025, 3:40 a.m.

Reference frame: TEME

Reference center: EARTH

Epoch: Dec. 19, 2025, 10:02 p.m. UTC

TLE line 0: 0 COSMOS 941

TLE line 1: 1 10287U 77079C 25353.91843543 -.00000010 00000-0 36726-4 0 9993

TLE line 2: 2 10287 74.0255 273.7782 0032306 260.3984 166.4131 12.56548462187523

Live tracking on map

Real-time ground track for satellite COSMOS 941.

In-orbit conjunctions

There are no conjunctions computed for COSMOS 941, at the moment. Check back to stay up to date, as we update our databases every day.

Go to all conjunctions

Associated space launch

High-resolution film-return Zenit reconnaissance satellite

COSMOS 941 was lifted into orbit during the mission ‘Soyuz U | Zenit-4MKM 4’, on board a Soyuz U space rocket.

The launch took place on Aug. 24, 1977, 2:29 p.m. from 43/4 (43R).

For more information about the launch, click the button.

Launch to space Soyuz U | Zenit-4MKM 4
Soyuz U | Zenit-4MKM 4

Agency: N/A

Status: Launch Successful

Launch date: Aug. 24, 1977, 2:29 p.m. UTC

Rocket: Soyuz U

Launch pad: 43/4 (43R)

Location: Plesetsk Cosmodrome, Russian Federation

...

Latest news about this satellite

There are no fresh news available about this satellite. Check back as we update our databases every day.


Newsletter sign-up

Weekly statistics, charts and insights to help you stay on top of the space industry.